Location: Turtle Rock Observatory
(36.6913°N, 81.9708°W)
Time: 10:27:44
(UTC-05:00)

Lacrosse 5 rocket - Visible Passes

Search period start: 06 February 2016 00:00
Search period end: 16 February 2016 00:00
Orbit: 470 x 640 km, 57.0° (Epoch: 27 January)

Date Brightness Start Highest point End Pass type
(mag) Time Alt. Az. Time Alt. Az. Time Alt. Az.
10 Feb 2.3 06:56:11 10° SSW 07:00:28 56° SE 07:04:33 10° NE visible
12 Feb 4.5 05:12:23 10° SE 05:14:12 12° ESE 05:16:01 10° E visible
12 Feb 1.4 06:48:43 10° SW 06:53:05 70° NW 06:57:14 10° NE visible
13 Feb 4.1 05:07:24 10° SSE 05:10:25 18° ESE 05:13:20 10° ENE visible
13 Feb 1.7 06:45:11 10° WSW 06:49:25 49° NW 06:53:28 10° NNE visible
14 Feb 3.4 05:04:40 19° SSE 05:06:37 26° ESE 05:10:10 10° ENE visible
14 Feb 2.1 06:41:46 10° WSW 06:45:48 35° NW 06:49:38 10° NNE visible
15 Feb 2.7 05:02:23 36° SE 05:02:50 37° SE 05:06:47 10° ENE visible
15 Feb 2.5 06:38:29 10° W 06:42:11 27° NW 06:45:45 10° NNE visible
